Regional Weather Roundup
Issued by NWS

Home | Current Version | Previous Version | Text Only | Print | Product List | Glossary On
Versions: 1 2 3 4 5 6 7 8 9 10 11 12 13 14 15 16 17 18 19 20 21 22 23 24 25 26 27 28 29 30 31 32 33 34 35 36 37 38 39 40 41 42 43 44 45 46 47 48 49 50
000
ASUS45 KABQ 032010
RWRNM
NEW MEXICO REGIONAL WEATHER ROUNDUP
NATIONAL WEATHER SERVICE ALBUQUERQUE NM
200 PM MDT TUE MAY 03 2016

NOTE: "FAIR" MEANS FEW OR NO CLOUDS BELOW 12,000 FEET AGL WITH NO
       SIGNIFICANT WEATHER OR OBSTRUCTIONS TO VISION.

      THIS PRODUCT IS RELEASED AS TWO VERSIONS.  ONE VERSION NEAR
      THE TOP OF THE HOUR CONTAINING PRELIMINARY DATA FROM ALBUQUERQUE
      AND OTHER STATIONS.  A FINAL VERSION WITH ADDITIONAL DATA IS
      ISSUED ABOUT 10 MINUTES AFTER THE HOUR.

NMZ501-503-504-510>518-032100-
NORTHWEST PLATEAU/NORTHCENTRAL MOUNTAINS

CITY           SKY/WX    TMP DP  RH WIND       PRES   REMARKS
FARMINGTON     FAIR      64  29  26 CALM      30.19F
LOS ALAMOS     FAIR      61  28  28 E12       30.25F
SANTA FE       FAIR      66  26  22 E5        30.20S
TAOS           FAIR      61  19  20 N16G22    30.25F
ANGEL FIRE     PTSUNNY   52  22  30 N5        30.28S

$$
NMZ402-403-502-505>509-032100-
WESTCENTRAL MOUNTAINS/SOUTHWEST MOUNTAINS

CITY           SKY/WX    TMP DP  RH WIND       PRES   REMARKS
GALLUP         FAIR      61  30  31 N5        30.24S
GRANTS         FAIR      62  28  27 CALM      30.25S
SILVER CITY      N/A     70  27  19 NE8       30.15F

$$
NMZ407-409-411-412-032100-
SOUTHERN DESERTS

CITY           SKY/WX    TMP DP  RH WIND       PRES   REMARKS
LORDSBURG      FAIR      77  30  18 E6        30.07F
DEMING         FAIR      77  33  20 NE9G18    30.09F
LAS CRUCES     FAIR      74  31  20 CALM      30.11F
HOLLOMAN AFB   FAIR      74  27  17 VRB2      30.09F
ALAMOGORDO     FAIR      75  27  16 NW8       30.11F
T OR C         FAIR      74  27  17 VRB7      30.12F

$$
NMZ519>523-032100-
CENTRAL VALLEYS/CENTRAL HIGHLANDS

CITY           SKY/WX    TMP DP  RH WIND       PRES   REMARKS
ALBUQUERQUE    FAIR      69  24  18 VRB7      30.18F
DOUBLE EAGLE   MOSUNNY   64  30  27 NE8       30.22
MORIARTY ARPT  FAIR      64  29  26 E15       30.22R
CLINES CORNERS FAIR      60  30  32 E10G18    30.23S
BELEN          FAIR      68  27  21 W5        30.18F
SOCORRO        FAIR      73  26  17 NE9G20    30.15F

$$
NMZ524>526-539-540-032100-
SOUTHCENTRAL MOUNTAINS

CITY           SKY/WX    TMP DP  RH WIND       PRES   REMARKS
RUIDOSO          N/A     64  25  22 NW12G24   30.23F

$$
NMZ527>531-032100-
NORTHEAST HIGHLANDS/NORTHEAST PLAINS

CITY           SKY/WX    TMP DP  RH WIND       PRES   REMARKS
LAS VEGAS      FAIR      58  30  34 NE12      30.24F
RATON          FAIR      60  25  26 N15G28    30.22F
CLAYTON        FAIR      67  29  24 N22G39    30.15F

$$
NMZ532>537-032100-
EASTCENTRAL PLAINS

CITY           SKY/WX    TMP DP  RH WIND       PRES   REMARKS
TUCUMCARI      FAIR      73  31  21 N13G20    30.13F
CANNON AFB     FAIR      69  36  30 NE7G20    30.13S
CLOVIS AIRPORT FAIR      70  39  32 NE15G24   30.16S

$$
NMZ028-029-538-032100-
SOUTHEAST PLAINS

CITY           SKY/WX    TMP DP  RH WIND       PRES   REMARKS
ROSWELL        FAIR      76  31  19 CALM      30.07F
ARTESIA        FAIR      77  32  19 NE9G17    30.08S
CARLSBAD       FAIR      79  33  19 VRB6      30.04F
HOBBS          MOSUNNY   77  32  19 SW9       30.09F


$$




USA.gov is the U.S. government's official web portal to all federal, state and local government web resources and services.